COSMOS 1275 DEB

Satellite information

Favourite Embed

Satellite Type and Status

DEBRISIN ORBIT

Key statistics

Satellite COSMOS 1275 DEB at a glance.

Uptime

16264

Days in orbit

Revolutions

≈ 14.2

Per day

Orbit

LEO

Low Earth Orbit

Inclination

83.1

Latest

Satellite identification and parameters

Extended collection of information and parameters for COSMOS 1275 DEB.

Object identification

Identified? True

Debris? True

Object name: COSMOS 1275 DEB

International designator: 1981-053AM

Object number (NORAD): 12693

Object ID (CCSDS): 12693

Country: COMMONWEALTH OF INDEPENDENT STATES (CIS)

Current information (Y/N): Y

RCS size: MEDIUM

Orbital parameters

Period: 101.347 minutes

Inclination: 83.1442 deg

SMA: 7200.595 km

Apoapsis: 854.755 km

Periapsis: 790.166 km

RAAN: 80.7315 deg

Eccentricy: 0.00448499

Argument of periapsis: 250.4484 deg

Mean anomaly: 225.5182 deg

Mean motion: 14.20856342 rev/day

Mean motion (dot): 0.00002385 rev/day2

B* drag term: 0.0010853872 1/REarth

Two-line elements (TLE)

Creation date: Dec. 14, 2025, 3:07 a.m.

Reference frame: TEME

Reference center: EARTH

Epoch: Dec. 13, 2025, 4:52 p.m. UTC

TLE line 0: 0 COSMOS 1275 DEB

TLE line 1: 1 12693U 81053AM 25347.70292432 .00002385 00000-0 10854-2 0 9996

TLE line 2: 2 12693 83.1442 80.7315 0044850 250.4484 225.5182 14.20856342961722

Live tracking on map

Real-time ground track for satellite COSMOS 1275 DEB.

In-orbit conjunctions

A list of the most updated potential collisions computed for object COSMOS 1275 DEB.

Target Orbit TCA Probability of collision Miss distance Type
BLITS DEB SSO 2024-11-06 16:29:05 0.0001070254 346.0 (m) DEBRIS
FENGYUN 1C DEB SSO 2024-05-31 06:12:10 0.0009748357 29.0 (m) DEBRIS

Associated space launch

Navigation satellite providing location information for the Tsiklon-B navigation system

COSMOS 1275 DEB was lifted into orbit during the mission ‘Kosmos-3M | Parus 27’, on board a Kosmos-3M space rocket.

The launch took place on June 4, 1981, 3:41 p.m. from 132/2.

For more information about the launch, click the button.

Launch to space Kosmos-3M | Parus 27
Kosmos-3M | Parus 27

Agency: N/A

Status: Launch Successful

Launch date: June 4, 1981, 3:41 p.m. UTC

Rocket: Kosmos-3M

Launch pad: 132/2

Location: Plesetsk Cosmodrome, Russian Federation

...

Latest news about this satellite

There are no fresh news available about this satellite. Check back as we update our databases every day.


Newsletter sign-up

Weekly statistics, charts and insights to help you stay on top of the space industry.